Weather observations for the past three days for
Dubuque Regional Airport
Imperial (Metric)
Date Time (cdt) Wind (mph) Vis. (mi.) Weather Sky Cond. Temperature (ºF) Relative Humidity Wind Chill (°F) Heat Index (°F) Pressure Precipitation (in)
Air Dwpt 6 hour altimeter (in) sea level (mb) 1 hr 3 hr 6 hr
Max. Min.
13 00:53 S 12 10.00 Fair CLR 70 62.1 73.9 68 76% 29.8 1008.1
12 23:53 S 10 10.00 Fair CLR 70 62.1 76% 29.81 1008.7
12 22:53 S 8 10.00 Fair CLR 68 62.1 81% 29.83 1009.3
12 21:53 S 5 10.00 Fair CLR 69.1 63 81% 29.82 1009.1
12 20:53 SE 7 10.00 Fair CLR 71.1 63 76% 29.81 1008.8
12 19:53 SE 3 10.00 Fair CLR 73 64 74% 29.83 1009.6
12 18:53 E 7 10.00 Fair CLR 73.9 64 89.1 72 71% 29.86 1010.5
12 17:53 N 9 10.00 Mostly Cloudy BKN110 72 63 73% 29.87 1011.2
12 16:53 N 26 G 35 10.00 Partly Cloudy and Windy SCT120 81 61 51% 82 29.9 1011.9
12 15:53 SW 15 G 26 10.00 A Few Clouds FEW120 87.1 60.1 40% 87 29.85 1010.2
12 14:53 SW 13 G 22 10.00 Fair CLR 87.1 61 42% 87 29.86 1010.5
12 13:53 SW 18 G 23 10.00 Fair CLR 88 59 38% 87 29.87 1010.7
12 12:53 SW 12 G 22 10.00 Fair CLR 87.1 57 87.1 64 36% 86 29.88 1011.1
12 11:53 SW 13 10.00 Fair CLR 84.9 57 39% 84 29.91 1011.9
12 10:53 SW 12 10.00 Fair CLR 82.9 59 44% 83 29.9 1011.6
12 09:53 S 8 10.00 Fair CLR 79 62.1 56% 80 29.91 1012.3
12 08:53 SW 8 10.00 Fair CLR 75 62.1 64% 77 29.91 1012.2
12 07:53 SW 6 10.00 Fair CLR 69.1 63 81% 29.92 1012.5
12 06:53 S 5 10.00 Fair CLR 64 61 64.9 55.9 90% 29.91 1012.4
12 05:53 SW 5 9.00 Fair CLR 57.9 57 97% 29.91 1012.4
12 04:53 S 5 10.00 Fair CLR 59 57 93% 29.9 1012.1
12 03:53 S 3 10.00 Fair CLR 61 57.9 90% 29.89 1011.7
12 02:53 S 5 10.00 Fair CLR 62.1 57.9 86% 29.88 1011.5
12 01:53 S 7 10.00 Fair CLR 64 59 84% 29.87 1011.2
12 00:53 S 6 10.00 Fair CLR 64.9 59 78.1 64 81% 29.87 1011.0
11 23:53 S 6 10.00 Fair CLR 66 59 78% 29.86 1010.8
11 22:53 S 9 10.00 Fair CLR 68 59 73% 29.86 1010.6
11 21:53 S 9 10.00 Fair CLR 71.1 60.1 68% 29.86 1010.6
11 20:53 S 9 10.00 Fair CLR 72 60.1 66% 29.85 1010.3
11 19:53 S 9 10.00 Fair CLR 75.9 60.1 58% 78 29.85 0.0
11 18:53 SW 10 10.00 Fair CLR 78.1 60.1 79 71.1 54% 79 29.85 1010.7
11 17:53 S 13 10.00 A Few Clouds FEW065 78.1 57.9 50% 79 29.86 0.0
11 16:53 SW 14 G 22 10.00 Mostly Cloudy BKN060 77 57 50% 79 29.89 0.0
11 15:53 S 15 G 25 10.00 Mostly Cloudy BKN085 75.9 55.9 50% 78 29.89 0.0
11 14:53 S 14 10.00 Overcast OVC090 73 54 51% 29.92 0.0
11 13:53 S 13 10.00 Overcast OVC100 71.1 51.1 49% 29.94 0.0
11 12:53 S 12 10.00 Overcast BKN075 OVC090 71.1 50 47% 29.96 0.0
11 11:53 SW 13 G 20 10.00 Mostly Cloudy BKN085 72 48 43% 29.97 0.0
11 10:53 S 15 G 22 10.00 Fair CLR 71.1 48 44% 29.98 0.0
11 09:53 S 13 10.00 Fair CLR 68 48 49% 30 1015.5
11 08:53 S 12 10.00 Fair CLR 64 46.9 54% 30.01 1016.2
11 07:53 S 3 10.00 Fair CLR 59 48 67% 30.01 1016.0
11 06:53 Calm 10.00 Fair CLR 54 48 80% 30.01 1015.9
11 05:53 Calm 10.00 Fair CLR 48 45 89% 30.01 1016.2
10 21:53 Vrbl 3 10.00 Fair CLR 59 50 72% 29.99 1015.5
10 20:53 Vrbl 3 10.00 Fair CLR 61 46 58% 29.97 1015.0
10 19:53 Vrbl 3 10.00 Fair CLR 68 41 38% 29.98 1015.1
10 18:53 NE 6 10.00 Fair CLR 70 41 72 66 35% 29.99 1015.4
10 17:53 NE 6 10.00 Fair CLR 70 43 38% 29.99 0.0
10 16:53 NE 6 10.00 Fair CLR 72 41 33% 30 0.0
10 15:53 Vrbl 7 10.00 Fair CLR 68 36 31% 30.02 0.0
10 14:53 N 12 10.00 Fair CLR 68 43 40% 30.03 0.0
10 13:53 NE 7 10.00 Fair CLR 66 43 43% 30.04 0.0
10 12:53 NE 7 10.00 Fair CLR 66 43 66 52 43% 30.05 0.0
10 11:53 NE 7 10.00 Fair CLR 64.9 43 45% 30.06 0.0
10 10:53 Vrbl 6 10.00 Fair CLR 64 44.1 48% 30.07 0.0
10 08:53 NE 16 10.00 Fair CLR 55 45 69% 30.06 1018.0
10 07:53 N 14 10.00 Fair CLR 54 45 72% 30.06 1017.7
10 06:53 N 7 10.00 Fair CLR 52 45 77% 30.04 1017.1
10 05:53 N 7 10.00 Fair CLR 52 45 77% 30.03 1016.7
Date Time (cdt) Wind (mph) Vis. (mi.) Weather Sky Cond. Air Dwpt Max. Min. Relative Humidity Wind Chill (°F) Heat Index (°F) altimeter (in) sea level (mb) 1 hr 3 hr 6 hr
6 hour
Temperature (ºF) Pressure Precipitation (in)